FENGYUN 1C DEB, 45527

Orbit data source: Space-Track

FENGYUN 1C DEB, 45527 is space debris in SSO originally from a launch on Mon, 10 May 1999 UTC launched from the Taiyaun Space Center, China (TSC). Fengyun 1C debris stems from the Chinese weather satellite Fengyun-1C, which was intentionally destroyed by a Chinese anti-satellite missile in 2007. This event dramatically increased the amount of space debris, with thousands of trackable fragments posing hazards to satellites and human spaceflight. The Fengyun 1C debris cloud has become a focal point in discussions about space sustainability and the need for international regulations to prevent the creation of new debris.

Loading next visibility...
Identifier
45527, 1999-025EYS
Orbit
SSO
Country
Flag of CNCN / PRC
Related business
Manufacturer
Unknown
Mission
Spacecraft
Bus & Motor
Unknown
Mass
Unknown
Launch date (UTC)
1999-05-10 (27 years ago)
Launch vehicle
Unknown
Launch site
Taiyaun Space Center, China (TSC)
Object type
Payload
Rocket body
Debris
Shape & HBR
Unknown shape, 0.1 m
Radar Cross Section
Small (<0.1 m²)

Expand to show TLE details & history
Last TLE update: 15 hours ago

TLE from 15 hours ago
0 FENGYUN 1C DEB
1 45527U 99025EYS 26121.15801012  .00003626  00000-0  15281-2 0  9994
2 45527  98.7244 192.0758 0055328 180.3608 179.7541 14.25488899415653
Epoch: 2026-05-01T03:47Z
TLE epoch observation values (Epoch: 2026-05-01T03:47:32.074Z)
Latitude
0.00002°
Longitude
-83.90213°
Altitude
849.532 km
Speed
7.407 km/s
True Right ascension
12h 48m 18s
True Declination
0° 00' 00"
Sunlit
Object was in full shadow at epoch
Visualization orbit readout
Latitude
Unknown
Longitude
Unknown
Altitude
Unknown
Speed
Unknown
Apparent Right ascension
Unknown
Apparent Declination
Unknown
Sunlit
N/A
Visualization observer readout
Local Sidereal Time
02:48:13
Azimuth
Unknown
Elevation
Unknown
Doppler factor
Unknown
Orbital elements
Apogee altitude
843.739 km
Perigee altitude
764.264 km
Semi-major axis
7,182.138 km
Eccentricity
0.00553
Inclination
98.7244°
RAAN
192.0758°
Arg. of periapsis
180.3608°
True anomaly
179.7568°
Mean anomaly
179.7541°
Eccentric anomaly
179.75545°
Mean motion
3.56585 °/min
Orbital period
100.96 mins
BSTAR
0.0015281
Loading maneuver chart data...
Computing Atmospheric mass density...
Loading historical data...
Loading historical data...
Loading historical data...
Loading historical data...
Loading historical data...
Loading historical data...
Loading historical data...

Documentation

Showing up to 5 results
|